This demonstration page uses our WeatherBlox Daily Observations layout. Learn more.

Left ArrowRight Arrow

47.50024, -111.30081

Hourly Observations for June 16, 2020

Temp ( °F °C ) Dew Point ( °F °C ) Humidity (%) Winds ( mph kmh ) Pressure ( in mb ) Visibility ( mi km ) Precip ( " mm )
12:53 am 00:53 Mostly Cloudy 46 7.8 42 5.6 86 86 WSW 8 13 29.87 1011 10 16 0.00 0.00
1:53 am 01:53 Cloudy 50 10 44 6.7 80 80 SSW 10 17 29.84 1011 10 16 0.00 0.00
2:53 am 02:53 Cloudy with Light Rain 50 10 43 6.1 77 77 SSW 10 17 29.80 1009 10 16 0.00 0.00
3:53 am 03:53 Mostly Cloudy 49 9.4 42 5.6 77 77 SSW 8 13 29.81 1009 10 16 0.00 0.00
4:53 am 04:53 Cloudy with Light Rain 49 9.4 43 6.1 80 80 SW 8 13 29.80 1009 10 16 0.00 0.00
5:53 am 05:53 Cloudy 49 9.4 44 6.7 83 83 SSW 5 7 29.80 1009 10 16 0.00 0.00
6:53 am 06:53 Cloudy 49 9.4 43 6.1 80 80 WSW 3 6 29.82 1010 10 16 0.00 0.00
7:53 am 07:53 Cloudy with Light Rain 49 9.4 43 6.1 80 80 Calm 29.83 1010 10 16 0.00 0.00
8:53 am 08:53 Cloudy 52 11.1 45 7.2 77 77 NW 5 7 29.85 1011 10 16 0.00 0.00
9:53 am 09:53 Cloudy with Light Rain 52 11.1 44 6.7 75 75 NW 6 9 29.86 1011 10 16 0.00 0.00
10:53 am 10:53 Cloudy with Light Rain 53 11.7 42 5.6 66 66 VRB 3 6 29.87 1011 10 16 0.00 0.00
11:53 am 11:53 Cloudy with Light Rain 52 11.1 43 6.1 72 72 NW 6 9 29.88 1012 10 16 0.01 0.25
12:53 pm 12:53 Cloudy 54 12.2 42 5.6 64 64 NW 3 6 29.88 1012 10 16 0.01 0.25
1:53 pm 13:53 Cloudy with Light Rain 53 11.7 45 7.2 74 74 SW 6 9 29.88 1012 8 13 0.01 0.25
2:53 pm 14:53 Cloudy with Light Rain 52 11.1 46 7.8 80 80 S 7 11 29.89 1012 10 16 0.00 0.00
3:53 pm 15:53 Mostly Cloudy 55 12.8 45 7.2 69 69 S 8 13 29.88 1012 10 16 0.00 0.00
4:53 pm 16:53 Sunny 55 12.8 42 5.6 62 62 SW 7 11 29.87 1012 10 16 0.00 0.00
5:53 pm 17:53 Sunny 58 14.4 44 6.7 60 60 SSW 12 19 29.85 1011 10 16 0.00 0.00
6:53 pm 18:53 Sunny 58 14.4 42 5.6 56 56 SSW 8 13 29.85 1011 10 16 0.00 0.00
7:53 pm 19:53 Sunny 57 13.9 41 5 55 55 SSW 12 19 29.87 1011 10 16 0.00 0.00
8:53 pm 20:53 Partly Cloudy 51 10.6 42 5.6 71 71 SW 8 13 29.88 1012 10 16 0.00 0.00
9:53 pm 21:53 Cloudy 53 11.7 41 5 64 64 SSW 9 15 29.89 1012 10 16 0.00 0.00
10:53 pm 22:53 Cloudy 51 10.6 41 5 69 69 W 8 13 29.89 1012 10 16 0.00 0.00
11:53 pm 23:53 Cloudy 52 11.1 42 5.6 69 69 NNW 9 15 29.89 1012 10 16 0.00 0.00

Powered by AerisWeather